Flag for U.S.A. Weather past 2 weeks in Little Rock, Arkansas, U.S.A.

Now
85 °F

Passing clouds.


Feels Like: 89 °F
Forecast: 68 / 95 °F
Wind: No wind

Location: Adams Field

Current Time: Aug 2, 2015 at 10:07:51 AM

Latest Report: Aug 2, 2015 at 8:53 AM


Visibility: 10 mi

Pressure: 29.99 "Hg

Humidity: 61%

Dew point: 70 °F

Location of Little RockLocation

Historic Weather in Little Rock — Graph

°F

Little Rock temperature yesterday

Maximum temperature yesterday: 95 °F (at 12:53 PM)
Minimum temperature yesterday: 72 °F (at 5:53 AM)
Average temperature yesterday: 84 °F

Past Weeks' High & Low Weather Summary

 TemperatureHumidityPressure
High101 °F (Jul 29, 1:53 PM)94% (Jul 26, 3:53 AM)30.13 "Hg (Jul 26, 3:53 AM)
Low72 °F (Jul 31, 5:53 AM)31% (Aug 1, 1:53 PM)29.81 "Hg (Jul 20, 6:53 PM)
Average86 °F64%29.96 "Hg
* Reported Jul 18 8:53 AM — Aug 2 8:53 AM, Little Rock, Weather by CustomWeather, © 2015

Note: Actual official high and low records may vary slightly from our data, if they occured in-between our weather recording intervals... More about our weather records

Advertising

Little Rock weather history for previous 24 hours

 ConditionsComfort  
Time TempWeatherWind HumidityBarometerVisibility
8:53 AM
Sun, Aug 2
85 °FPassing clouds.No wind61%29.99 "Hg10 mi
7:53 AM77 °FPassing clouds.No wind77%29.98 "Hg10 mi
6:53 AM72 °FPassing clouds.No wind87%29.97 "Hg10 mi
5:53 AM72 °FPassing clouds.No wind87%29.96 "Hg10 mi
4:53 AM72 °FPassing clouds.No wind84%29.96 "Hg10 mi
3:53 AM73 °FPassing clouds.3 mph84%29.96 "Hg10 mi
2:53 AM73 °FPassing clouds.No wind84%29.96 "Hg10 mi
1:53 AM76 °FPassing clouds.No wind77%29.96 "Hg10 mi
12:53 AM76 °FPassing clouds.No wind77%29.97 "Hg10 mi
11:53 PM
Sat, Aug 1
77 °FPassing clouds.No wind74%29.97 "Hg10 mi
10:53 PM79 °FPassing clouds.No wind72%29.97 "Hg10 mi
9:53 PM82 °FPassing clouds.No wind58%29.96 "Hg10 mi
8:53 PM85 °FScattered clouds.No wind53%29.95 "Hg10 mi
7:53 PM88 °FScattered clouds.No wind45%29.94 "Hg10 mi
6:53 PM93 °FScattered clouds.6 mph33%29.94 "Hg1 mi
5:53 PM94 °FPartly sunny.8 mph31%29.96 "Hg10 mi
4:53 PM95 °FPartly sunny.8 mph32%29.96 "Hg10 mi
3:53 PM94 °FScattered clouds.8 mph33%29.97 "Hg10 mi
2:53 PM95 °FPartly sunny.12 mph34%29.99 "Hg10 mi
1:53 PM95 °FPartly sunny.8 mph31%30.01 "Hg10 mi
12:53 PM95 °FPartly sunny.5 mph32%30.03 "Hg10 mi
11:53 AM93 °FScattered clouds.5 mph41%30.05 "Hg10 mi
10:53 AM91 °FPassing clouds.6 mph45%30.06 "Hg10 mi
Weather by CustomWeather, © 2015

See weather overviewHow to use our weather pages